Regional Weather Roundup
Issued by NWS

Home | Current Version | Previous Version | Text Only | Print | Product List | Glossary Off
Versions: 1 2 3 4 5 6 7 8 9 10 11 12 13 14 15 16 17 18 19 20 21 22 23 24 25 26 27 28 29 30 31 32 33 34 35 36 37 38 39 40 41 42 43 44 45 46 47 48 49 50

000
ASUS43 KLOT 221306
RWRIL

ILLINOIS REGIONAL WEATHER ROUNDUP
NATIONAL WEATHER SERVICE CHICAGO/ROMEOVILLE IL
700 AM CST MON DEC 22 2014

NOTE: "FAIR" INDICATES FEW OR NO CLOUDS BELOW 12,000 FEET WITH NO
SIGNIFICANT WEATHER AND/OR OBSTRUCTIONS TO VISIBILITY.

* THESE STATIONS ARE NOT UNDER NWS QUALITY CONTROL. THEY ALSO MAY NOT
  REPORT WEATHER SUCH AS PRECIPITATION OR FOG.

ILZ001-002-007-009-015-016-024-221400-
NORTHWEST ILLINOIS

CITY           SKY/WX    TMP DP  RH WIND       PRES   REMARKS
MOLINE         CLOUDY    37  32  82 SE10      29.80F WCI  30
STERLING*      CLOUDY    34  28  80 E9        29.85F WCI  26
SAVANNA*       CLOUDY    36  31  82 SE8       29.84S WCI  30
$$

ILZ003-004-008-010-011-017-018-221400-
NORTH CENTRAL ILLINOIS

CITY           SKY/WX    TMP DP  RH WIND       PRES   REMARKS
ROCKFORD       CLOUDY    33  29  85 SE10      29.90F FOG     WCI  25
FREEPORT*      CLOUDY    32  31  94 SE12      29.87F FOG     WCI  23
ROCHELLE*      CLOUDY    32  30  93 SE13      29.89S FOG     WCI  22
DE KALB*       CLOUDY    31  28  88 SE13      29.90S FOG     WCI  21
PERU*          CLOUDY    34  31  87 E9        29.88F WCI  27
$$

ILZ005-006-012>014-019>023-221400-
NORTHEAST ILLINOIS

CITY           SKY/WX    TMP DP  RH WIND       PRES   REMARKS
CHICAGO-OHARE  CLOUDY    31  27  85 SE8       29.93F WCI  23
CHICAGO-MIDWAY CLOUDY    34  28  79 SE7       29.94F WCI  28
AURORA         CLOUDY    33  27  78 E9        29.91F HAZE    WCI  25
LANSING*       CLOUDY    32  28  84 SE9       29.95S WCI  24
JOLIET*        CLOUDY    32  28  86 SE7       29.93S FOG     WCI  25
WAUKEGAN       CLOUDY    33  29  85 SE10      29.93F FOG     WCI  25
DUPAGE AIRPORT CLOUDY    32  27  81 SE8       29.91F WCI  25
KANKAKEE*      CLOUDY    32  29  89 E9        29.94F WCI  24
WHEELING       CLOUDY    32  27  81 SE3       29.95F
MORRIS*        CLOUDY    33  31  92 SE10      29.91S WCI  25
ROMEOVILLE*    CLOUDY    32  28  86 SE8       29.92F WCI  25
NORTHERLY ISL    N/A     32  28  86 SE10        N/A  WCI  24
$$

LMZ740>746-221400-
SOUTHERN LAKE MICHIGAN

STATION/POSITION SKY/WX   TEMP    WIND        PRES    VSBY  WAVE
                          AIR SEA DIR/SP/G                  HT/PER
                          (F)     (DEG/KT/KT) (MB)    (MI)  (FT/S)
WAUKEGAN HARBOR            33     150/ 20/ 21   N/A
HARRISON CRIB              33     150/ 14/ 17   N/A
BURNHAM HARBOR             33     130/  7/ 11   N/A
CALUMET HARBOR             32     150/  6/  9 1013.0F
$$

ILZ025>027-034>036-040-047-049-050-058-095>099-221400-
WEST-CENTRAL ILLINOIS

CITY           SKY/WX    TMP DP  RH WIND       PRES   REMARKS
QUINCY         CLOUDY    39  32  76 SE15      29.74F WCI  31
GALESBURG*     CLOUDY    35  32  89 E9        29.79F WCI  28
MACOMB*        CLOUDY    37  33  87 SE10      29.80F WCI  29
JACKSONVILLE*  CLOUDY    38  35  88 SE13      29.80F WCI  30
PITTSFIELD*    LGT RAIN  39  34  80 SE10      29.78S WCI  33
$$

ILZ028>032-037-038-041>044-048-051>054-059>061-221400-
CENTRAL ILLINOIS

CITY           SKY/WX    TMP DP  RH WIND       PRES   REMARKS
PONTIAC        CLOUDY    33  31  94 E13       29.90F FOG     WCI  23
BLOOMINGTON    CLOUDY    34  31  89 SE13      29.86F WCI  25
DECATUR        MIX PCPN  34  31  88 SE9       29.87S FOG     WCI  27
PEORIA         CLOUDY    37  30  75 SE9       29.84F WCI  30
LACON*         CLOUDY    34  30  84 E10G16    29.84F WCI  26
LINCOLN*       CLOUDY    36  32  87 E7        29.85F WCI  30
SPRINGFIELD    LGT RAIN  36  32  85 SE13      29.83F FOG     WCI  27
TAYLORVILLE    LGT RAIN  34  32  93 SE9       29.84S WCI  26
$$

ILZ033-039-045-046-055>057-062-063-221400-
EAST-CENTRAL ILLINOIS

CITY           SKY/WX    TMP DP  RH WIND       PRES   REMARKS
CHAMPAIGN      CLOUDY    33  30  88 E10       29.89F WCI  25
DANVILLE*      CLOUDY    32  29  89 E9        29.88F WCI  24
RANTOUL*       CLOUDY    35  31  87 E7        29.90F WCI  29
MATTOON        CLOUDY    34  29  82 SE13      29.87F WCI  25
PARIS*         CLOUDY    34  31  89 E6        29.92S WCI  29
$$

ILZ079-100>102-221400-
SOUTHWEST ILLINOIS

CITY           SKY/WX    TMP DP  RH WIND       PRES   REMARKS
ALTON          LGT RAIN  37  36  93 E12       29.80F WCI  30
BELLEVILLE     LGT RAIN  39  38  99 E9        29.79F WCI  33
CAHOKIA*       LGT RAIN  40  38  93 SE8       29.79F
SPARTA*        CLOUDY    39  36  87 SE9       29.81F WCI  33
$$

ILZ064>066-069>071-074>076-080>082-084>086-088>090-092>094-221400-
SOUTH-CENTRAL ILLINOIS

CITY           SKY/WX    TMP DP  RH WIND       PRES   REMARKS
CARBONDALE     CLOUDY    42  35  76 E6        29.84F
CAIRO*         CLOUDY    48  44  85 SE7       29.85F
EFFINGHAM*     LGT RAIN  35  29  79 E8        29.89F WCI  29
MARION         CLOUDY    43  36  75 SE9       29.85F
MT. VERNON     CLOUDY    37  30  75 E5        29.88R WCI  34
CENTRALIA*     LGT RAIN  38  32  81 E6        29.85R WCI  33
SALEM*         DRIZZLE   40  33  78 SE6       29.86S
METROPOLIS*    CLOUDY    45  42  90 SE3       29.86S
$$

ILZ067-068-072-073-078-083-087-091-221400-
SOUTHEAST ILLINOIS

CITY           SKY/WX    TMP DP  RH WIND       PRES   REMARKS
LAWRENCEVILLE  CLOUDY    36  32  85 E8        29.91F WCI  30
FLORA*         LGT RAIN  37  33  86 E6        29.88F WCI  32
FAIRFIELD*     CLOUDY    39  33  79 E8        29.87S WCI  33
HARRISBURG*    CLOUDY    40  35  83 E6        29.89R
ROBINSON*      CLOUDY    36  32  86 SE8       29.92S WCI  29
CARMI*         CLOUDY    41  37  86 SE6       29.89S
$$

ABBREVIATIONS USED IN REMARKS
   TC - TEMPERATURE IN CELSIUS
  WCI - WIND CHILL INDEX
   HX - HEAT INDEX
  VSB - VISIBILITY
$$




USA.gov is the U.S. government's official web portal to all federal, state and local government web resources and services.